Regional Weather Roundup
Issued by NWS Little Rock, AR

Home | Current Version | Previous Version | Graphics & Text | Print | Product List | Glossary On
Versions: 1 2 3 4 5 6 7 8 9 10 11 12 13 14 15 16 17 18 19 20 21 22 23 24 25 26 27 28 29 30 31 32 33 34 35 36 37 38 39 40 41 42 43 44 45 46 47 48 49 50
000
ASUS44 KLZK 200905
RWRLZK

WEATHER ROUNDUP FOR ARKANSAS
NATIONAL WEATHER SERVICE LITTLE ROCK AR
400 AM CDT MON APR 20 2015

NOTE: "FAIR" INDICATES FEW OR NO CLOUDS BELOW 12,000 FEET WITH NO
SIGNIFICANT WEATHER AND/OR OBSTRUCTIONS TO VISIBILITY.

ARZ001-003-010-029-201000-
NORTHWEST ARKANSAS

CITY           SKY/WX    TMP DP  RH WIND       PRES   REMARKS
FAYETTEVILLE   PTCLDY    46  41  82 W8        29.82R
FORT SMITH     PTCLDY    51  42  71 W10       29.84R
HARRISON       CLOUDY    49  43  80 W10G21    29.77R
BENTONVILLE    PTCLDY    46  37  71 NW9       29.81R
ROGERS         PTCLDY    47  40  76 W13       29.81R
SILOAM SPGS    PTCLDY    46  36  66 NW9       29.83S
HIGHFILL       PTCLDY    48  38  68 NW9       29.80R
$$

ARZ004-005-016-201000-
NORTH CENTRAL ARKANSAS

CITY           SKY/WX    TMP DP  RH WIND       PRES   REMARKS
BATESVILLE     CLOUDY    54  50  87 W9        29.70S
FLIPPIN        CLOUDY    52 N/A N/A W12       29.72R
MTN HOME       CLOUDY    51  46  83 NW8       29.72R
$$

ARZ040-041-201000-
WEST CENTRAL ARKANSAS

CITY           SKY/WX    TMP DP  RH WIND       PRES   REMARKS
MENA           CLEAR     52  41  66 W12       29.84R
MOUNT IDA      CLEAR     52  41  66 NW6       29.79R
$$

ARZ009-017-025-026-028-201000-
NORTHEAST ARKANSAS

CITY           SKY/WX    TMP DP  RH WIND       PRES   REMARKS
CORNING          N/A     57  54  88 W15       29.64R
JONESBORO      CLEAR     55  53  93 W9        29.66R
NEWPORT        CLEAR     56  50  80 NW18G28   29.69S
WALNUT RIDGE   PTCLDY    55  48  76 W10       29.66R
BLYTHEVILLE    PTCLDY    57  55  93 W8G17     29.64R
$$

ARZ022-023-033-042-044-201000-
CENTRAL ARKANSAS

CITY           SKY/WX    TMP DP  RH WIND       PRES   REMARKS
LITTLE ROCK    MOCLDY    56  49  77 W12       29.75R
N LITTLE ROCK    N/A     55  52  90 W9G15     29.75R
JACKSONVILLE   CLOUDY    55  52  89 W14       29.73R
SEARCY         CLEAR     55  53  93 VRB7      29.73S
HOT SPRINGS    CLOUDY    56  44  64 NW10G23   29.79R
RUSSELLVILLE   CLOUDY    55  48  77 W17       29.78R
CLINTON        CLOUDY    55  50  82 CALM      29.76R
$$

ARZ036-201000-
EAST ARKANSAS

CITY           SKY/WX    TMP DP  RH WIND       PRES   REMARKS
WEST MEMPHIS   PTCLDY    57  56  96 W7        29.68R
$$

ARZ050-053-066-070-073-201000-
SOUTHWEST ARKANSAS

CITY           SKY/WX    TMP DP  RH WIND       PRES   REMARKS
ARKADELPHIA    CLOUDY    57  52  84 W6        29.81R
CAMDEN         PTCLDY    55  48  76 E5        29.80R
TEXARKANA      CLEAR     55  47  74 NW12      29.86R
EL DORADO      CLEAR     56  50  80 W6        29.81R
DE QUEEN       CLEAR     50  42  74 W3        29.85R
$$

ARZ056-057-069-201000-
SOUTHEAST ARKANSAS

CITY           SKY/WX    TMP DP  RH WIND       PRES   REMARKS
PINE BLUFF     CLEAR     55  51  86 SW6       29.76R
STUTTGART      CLEAR     55  50  82 W13       29.74R
MONTICELLO     CLEAR     57  50  77 W6        29.76S

$$




USA.gov is the U.S. government's official web portal to all federal, state and local government web resources and services.